Content
SEND FEEDBACK

Daily
Averages
Monthly
Summary
United States of America

BLAIR, SOUTH CAROLINA


Home > North America > United States > South Carolina
Elevation: 29 feet     Latitude: 34 25N     Longitude: 081 24W

WEATHER
 
SELECT A DAY
Number of Records: 138,539;   Date Range: 12/16/08 - 11/25/14
 
SHARE

PRINT THIS DATA

[ ← Previous Day ]
WEATHER ALMANAC - JANUARY 3, 2013
[ Next Day → ]
[ °C ]   °F
Weather ElementAverageHighLow
Temperature44.2 °F48.2 °F (12:35 am)33.8 °F (11:35 pm)
Dewpoint43.9 °F46.4 °F (3:35 am)33.8 °F (11:35 pm)
Humidity98.7 %100 % (3:35 am)87 % (12:35 am)
Barometer30.20 in30.31 in (10:55 pm)30.13 in (12:35 am)
Wind Speed3.6 mph10.4 mph (4:55 pm)
Weather ElementAverage
Visibility5.6 mi
Wind DirectionENE (72.7 °)

Weather ElementTotal
Precipitation0.01 in
Heating Degree Days24 (Base 65)
Averaged from 70 records on January 3, 2013
WEATHER CONDITIONS BREAKOUT
WIND DIRECTION BREAKOUT
WEATHER BY HOUR - JANUARY 3, 2013
[ °C ]   °F
Local TimeTemperatureDewpointHumidityBarometerVisibilityWind DirectionWind SpeedGust SpeedPrecipitationEventsConditions
12:35 AM48.2 °F44.6 °F87 %30.13 in10.0 miEast (90°)4.6 mphOvercast
12:55 AM46.4 °F44.6 °F93 %30.13 in10.0 miCalmOvercast
1:15 AM46.4 °F44.6 °F93 %30.13 in10.0 miEast (80°)3.5 mphOvercast
1:35 AM46.4 °F44.6 °F93 %30.14 in10.0 miCalmOvercast
1:55 AM46.4 °F44.6 °F93 %30.14 in10.0 miEast (100°)3.5 mphOvercast
2:15 AM46.4 °F44.6 °F93 %30.14 in10.0 miESE (110°)3.5 mphOvercast
2:35 AM46.4 °F44.6 °F93 %30.13 in10.0 miSE (130°)4.6 mphRainLight Rain
2:55 AM46.4 °F44.6 °F93 %30.15 in10.0 miCalmLight Drizzle
3:15 AM46.4 °F44.6 °F93 %30.16 in10.0 miCalmOvercast
3:35 AM46.4 °F46.4 °F100 %30.15 in10.0 miNE (50°)3.5 mphLight Drizzle
3:55 AM46.4 °F46.4 °F100 %30.15 in10.0 miCalmRainLight Rain
4:15 AM46.4 °F46.4 °F100 %30.15 in10.0 miNorth (350°)4.6 mphLight Drizzle
4:35 AM46.4 °F46.4 °F100 %30.16 in3.0 miNorth (10°)4.6 mphDrizzle
4:55 AM44.6 °F44.6 °F100 %30.15 in4.0 miNNE (20°)6.9 mph0.01 inDrizzle
5:15 AM44.6 °F44.6 °F100 %30.15 in4.0 miNE (50°)5.8 mphOvercast
5:35 AM44.6 °F44.6 °F100 %30.16 in3.0 miEast (80°)3.5 mphOvercast
5:55 AM44.6 °F44.6 °F100 %30.16 in5.0 miCalmOvercast
6:15 AM44.6 °F44.6 °F100 %30.15 in7.0 miESE (120°)4.6 mphOvercast
6:35 AM44.6 °F44.6 °F100 %30.15 in7.0 miESE (120°)5.8 mphOvercast
6:55 AM44.6 °F44.6 °F100 %30.16 in7.0 miCalmOvercast
7:15 AM44.6 °F44.6 °F100 %30.16 in7.0 miESE (110°)3.5 mphOvercast
7:35 AM44.6 °F44.6 °F100 %30.16 in7.0 miCalmOvercast
7:55 AM44.6 °F44.6 °F100 %30.18 in5.0 miCalmOvercast
8:15 AM44.6 °F44.6 °F100 %30.18 in4.0 miCalmOvercast
8:35 AM44.6 °F44.6 °F100 %30.18 in2.5 miENE (70°)3.5 mphOvercast
8:55 AM44.6 °F44.6 °F100 %30.18 in1.0 miNE (50°)3.5 mphOvercast
9:15 AM44.6 °F44.6 °F100 %30.19 in0.5 miNE (40°)3.5 mphFogFog
9:35 AM44.6 °F44.6 °F100 %30.20 in0.2 miNorth (10°)3.5 mphFogFog
9:55 AM44.6 °F44.6 °F100 %30.20 in0.5 miNorth (360°)5.8 mphFogFog
10:15 AM44.6 °F44.6 °F100 %30.21 in0.5 miNorth (10°)5.8 mphFogFog
10:35 AM44.6 °F44.6 °F100 %30.19 in0.5 miEast (90°)4.6 mphFogFog
10:55 AM44.6 °F44.6 °F100 %30.21 in0.2 miNE (40°)5.8 mphFogFog
11:15 AM44.6 °F44.6 °F100 %30.22 in0.5 miNorth (10°)8.1 mphFogFog
11:35 AM44.6 °F44.6 °F100 %30.20 in0.5 miNNE (30°)3.5 mphFogFog
11:55 AM44.6 °F44.6 °F100 %30.20 in0.8 miNE (50°)3.5 mphOvercast
12:15 PM44.6 °F44.6 °F100 %30.19 in1.2 miESE (110°)4.6 mphOvercast
12:35 PM46.4 °F46.4 °F100 %30.18 in4.0 miCalmOvercast
12:55 PM46.4 °F46.4 °F100 %30.18 in7.0 miCalmOvercast
1:15 PM46.4 °F46.4 °F100 %30.18 in4.0 miCalmOvercast
1:35 PM46.4 °F46.4 °F100 %30.16 in5.0 miCalmOvercast
1:55 PM46.4 °F46.4 °F100 %30.16 in7.0 miCalmOvercast
2:15 PM46.4 °F46.4 °F100 %30.16 in3.0 miNNE (30°)4.6 mphOvercast
2:35 PM46.4 °F46.4 °F100 %30.17 in5.0 miNorth (350°)4.6 mphOvercast
2:55 PM46.4 °F46.4 °F100 %30.18 in5.0 miNorth (360°)5.8 mphOvercast
3:15 PM46.4 °F46.4 °F100 %30.18 in7.0 miNNE (20°)6.9 mphOvercast
3:35 PM46.4 °F46.4 °F100 %30.19 in7.0 miNNE (20°)9.2 mphOvercast
3:55 PM46.4 °F46.4 °F100 %30.20 in7.0 miNorth (360°)8.1 mphOvercast
4:15 PM46.4 °F46.4 °F100 %30.20 in7.0 miNorth (360°)5.8 mphOvercast
4:35 PM44.6 °F44.6 °F100 %30.21 in7.0 miNorth (10°)9.2 mphOvercast
4:55 PM44.6 °F44.6 °F100 %30.22 in5.0 miNorth (360°)10.4 mphOvercast
5:15 PM44.6 °F44.6 °F100 %30.23 in5.0 miNorth (360°)5.8 mphOvercast
5:35 PM44.6 °F44.6 °F100 %30.24 in7.0 miNorth (10°)6.9 mphOvercast
6:15 PM44.6 °F44.6 °F100 %30.24 in7.0 miNE (40°)5.8 mphOvercast
6:35 PM44.6 °F44.6 °F100 %30.25 in7.0 miNNE (30°)5.8 mphOvercast
6:55 PM44.6 °F44.6 °F100 %30.27 in7.0 miNorth (10°)5.8 mphOvercast
7:15 PM44.6 °F44.6 °F100 %30.27 in10.0 miNorth (10°)5.8 mphOvercast
7:35 PM44.6 °F42.8 °F93 %30.28 in10.0 miNorth (10°)6.9 mphOvercast
7:55 PM44.6 °F42.8 °F93 %30.28 in10.0 miNNE (20°)5.8 mphOvercast
8:15 PM44.6 °F42.8 °F93 %30.29 in10.0 miNorth (10°)5.8 mphOvercast
8:35 PM42.8 °F42.8 °F100 %30.29 in10.0 miNorth (360°)4.6 mphOvercast
8:55 PM41.0 °F41.0 °F100 %30.29 in10.0 miCalmScattered Clouds
9:15 PM41.0 °F41.0 °F100 %30.30 in7.0 miNorth (10°)3.5 mphClear
9:35 PM39.2 °F39.2 °F100 %30.30 in5.0 miENE (60°)3.5 mphClear
9:55 PM37.4 °F37.4 °F100 %30.30 in4.0 miCalmClear
10:15 PM37.4 °F37.4 °F100 %30.30 in4.0 miCalmClear
10:35 PM37.4 °F37.4 °F100 %30.30 in2.0 miCalmClear
10:55 PM35.6 °F35.6 °F100 %30.31 in1.8 miCalmMist
11:15 PM35.6 °F35.6 °F100 %30.31 in1.5 miCalmMist
11:35 PM33.8 °F33.8 °F100 %30.31 in0.2 miCalmFogFog
11:55 PM33.8 °F33.8 °F100 %30.31 in0.2 miCalmFogFog
Hourly data recorded from KEOE, located miles away from Blair, South Carolina







STORIES FROM OUR PARTNERS